Location: Unspecified
(0.0000°N, 0.0000°E)
Time: 17:15:27
(UTC+00:00)

OTV 5 (USA 277) - Visible Passes

Search period start: 18 February 2019 00:00
Search period end: 28 February 2019 00:00
Orbit: 342 x 346 km, 54.5° (Epoch: 17 February)

Date Brightness Start Highest point End Pass type
(mag) Time Alt. Az. Time Alt. Az. Time Alt. Az.
18 Feb ? 19:39:27 10° WNW 19:40:20 11° WNW 19:41:12 10° NW visible
20 Feb ? 18:51:36 10° W 18:52:46 12° WNW 18:53:55 10° NNW visible
22 Feb ? 05:04:04 14° N 05:06:02 28° ENE 05:08:35 10° ESE visible
23 Feb ? 05:28:05 19° WNW 05:29:35 31° WSW 05:32:11 10° S visible
24 Feb ? 04:20:32 13° ESE 04:20:32 13° ESE 04:20:58 10° ESE visible
25 Feb ? 04:44:26 12° S 04:44:26 12° S 04:44:40 10° S visible
